Location: *
(29.1167°S, 130.0000°E)
Time: 21:00:59
(UTC+00:00)

SL-24 DEB - Pass Details

Date: 21 July 2019
Orbit: 665 x 702 km, 92.0° (Epoch: 24 August)

Event Time Altitude Azimuth Distance (km) Brightness Sun altitude
Rises 09:37:01 0° 16° (NNE) 2,990 7.6 -12.0°
Reaches altitude 10° 09:39:16 10° 20° (NNE) 2,087 6.7 -12.5°
Maximum altitude 09:43:46 56° 98° (E) 802 4.3 -13.4°
Drops below altitude 10° 09:48:20 10° 175° (S) 2,130 6.6 -14.4°
Sets 09:50:39 0° 179° (S) 3,057 7.5 -14.9°
